Regional Weather Roundup
Issued by NWS Midland/Odessa, TX

Skip options and go directly to product.
Home | Oldest Version | Previous Version | Current Version | All | Text Only | Save Text | Print | Product List | Glossary Off

Skip product version selection by date and time.   

691
ASUS44 KMAF 260910
RWRMAF
MIDLAND AREA WEATHER ROUNDUP
NATIONAL WEATHER SERVICE MIDLAND TX
400 AM CDT TUE MAY 26 2015

...IN SOUTHWEST TEXAS AND SOUTHEAST NEW MEXICO...

CITY           SKY/WX    TMP DP  RH WIND       PRES   REMARKS
ALPINE         CLEAR     51  31  46 SW6       30.09F
ANDREWS        FAIR      58  48  70 S5        29.94S
ARTESIA        CLEAR     55  41  58 SW3       29.97S
BIG SPRING     CLEAR     65  56  73 SE9       29.93R
CARLSBAD       CLEAR     55  44  66 W6        29.94S
DRYDEN           N/A     70  57  63 NW7       29.91S
FORT STOCKTON  CLEAR     61  31  32 S10       29.95S
GUAD PASS      CLEAR     60  25  26 S8        30.08R
HOBBS          CLEAR     52  48  87 W7        29.97S
MARFA          CLEAR     46  34  61 N12       30.08S
MIDLAND AIRPK  CLEAR     66  58  75 S6        29.94R
MIDLAND INTL   CLEAR     62  56  80 SW9       29.93R
ODESSA         CLEAR     62  52  69 SW6       29.95R
PECOS          CLEAR     55  43  63 CALM      29.93S
PRESIDIO       FAIR      64  23  20 NE3       29.94S
SEMINOLE       CLEAR     54  49  83 NW5       29.95R
SNYDER         CLEAR     58  56  94 S7        29.90S
WINK           CLEAR     61  40  45 E6        29.92R
$$
...OTHER STATIONS IN TEXAS...

CITY           SKY/WX    TMP DP  RH WIND       PRES   REMARKS
ABILENE        CLEAR     63  57  81 S15       29.89F
AMARILLO       PTCLDY    51  48  89 SE8       29.91R
AUSTIN         MOCLDY    64  64 100 CALM      29.93R
BROWNSVILLE    CLOUDY    79  77  94 SE8       29.86S FOG
CORPUS CHRISTI CLOUDY    80  76  87 SE14      29.89S
DALLAS FTW     CLOUDY    61  61 100 S10       29.91S
DEL RIO        CLOUDY    75  70  84 E8        29.86S
EL PASO        CLEAR     62  36  37 S3        30.01R
HOUSTON INT    TSTM      67  63  87 SE9       29.99R
LUBBOCK        PTCLDY    58  54  86 S8        29.91F
SAN ANGELO     CLEAR     63  60  90 S7        29.90S
SAN ANTONIO    CLOUDY    72  68  87 CALM      29.92S
WACO           CLOUDY    65  64  97 SE7       29.94R
WICHITA FALLS  NOT AVBL
$$
...OTHER LOCATIONS IN NEW MEXICO...

CITY           SKY/WX    TMP DP  RH WIND       PRES   REMARKS
ALAMAGORDO     CLEAR     59  36  41 NE8       30.02R
ALBUQUERQUE    CLEAR     52  47  83 W5        30.08S
CANNON AFB     CLEAR     54  46  73 W9        29.94S
CLOVIS         PTCLDY    52  45  76 W12       29.94S
HOLLOMAN AFB   CLEAR     57  39  51 NE6       30.00S
ROSWELL        CLEAR     62  42  47 W6        29.95S
RUIDOSO        CLEAR     52  36  54 W16       30.12S
SANTA FE       CLEAR     41  37  86 N5        30.09R WCI  38
TRUTH OR CONSE CLEAR     60  39  45 NW12      30.04F
TUCUMCARI      PTCLDY    55  51  86 NW5       29.92S
$$

USA.gov is the U.S. government's official web portal to all federal, state and local government web resources and services.